Terug naar catalogus

STARLINK-32545

ActiefCommunicatieVLEO
NORAD 62135·PAYLOAD·🇺🇸 United States

Gelanceerd Nov 27, 2024 vanaf Cape Canaveral Space Force Station

Loading…

Volgende Passages (komende 24 uur)

TLE

VersSource: CelesTrak SupGP

Epoch: Sep 14, 2026, 23:00 UTC

1 62135C 24222X   26257.95881944  .00008320  00000+0  30159-3 0  2579
2 62135  42.9993 147.6868 0001744 273.2039 337.1840 15.27546338    18

Volg STARLINK-32545 in realtime met AllMySat

Download on the App Store